Weather History for KLBL - March, 2013

Change the Weather History Date:

Tuesday, March 12, 2013

  Actual Average Record
Temperature  
Mean Temperature 40 °F -  
Max Temperature 53 °F 61 °F 92 °F (1989)
Min Temperature 26 °F 33 °F 0 °F (1948)
Degree Days  
Heating Degree Days 26    
Moisture  
Dew Point 24 °F    
Average Humidity 52    
Maximum Humidity 81    
Minimum Humidity 26    
Precipitation  
Precipitation 0.00 in - - ()
Sea Level Pressure  
Sea Level Pressure 30.25 in    
Wind  
Wind Speed 12 mph (North)    
Max Wind Speed 21 mph    
Max Gust Speed 25 mph    
Visibility 10 miles    
Events      
Averages and records for this station are not official NWS values.
T = Trace of Precipitation, MM = Missing Value Source: NWS Daily Summary

Daily Weather History Graph

Daily Weather History Graph

Search for Another Location

Airport or City:

Trip Planner

Search our weather history database for the weather conditions in past years. The results will help you decide how hot, cold, wet, or windy it might be!

Date:

Astronomy

Mar. 12, 2013 Rise Set
Actual Time 7:58 AM CDT 7:48 PM CDT
Civil Twilight 7:32 AM CDT 8:14 PM CDT
Nautical Twilight 7:02 AM CDT 8:44 PM CDT
Astronomical Twilight 6:32 AM CDT 9:15 PM CDT
Moon 8:08 AM CDT (3/12) 9:02 PM CDT (3/12)
Length of Visible Light 12h 41m
Length of Day
11h 49m
New Moon, 1% of the Moon is Illuminated
Mar 12
New Moon
Mar 19
First Quarter
Mar 27
Full
Apr 2
Last Quarter
Apr 10
New

Hourly Weather History & Observations

Time (CDT) Temp. Windchill Dew Point Humidity Pressure Visibility Wind Dir Wind Speed Gust Speed Precip Events Conditions
12:15 AM 46.4 °F 40.4 °F 24.8 °F 43% 30.04 in 10.0 mi NE 13.8 mph - N/A   Partly Cloudy
12:35 AM 46.4 °F 40.1 °F 24.8 °F 43% 30.06 in 10.0 mi NE 15.0 mph - N/A   Partly Cloudy
12:55 AM 46.4 °F 39.8 °F 24.8 °F 43% 30.06 in 10.0 mi NE 16.1 mph 23.0 mph N/A   Partly Cloudy
1:15 AM 44.6 °F 38.4 °F 24.8 °F 46% 30.07 in 10.0 mi NNE 12.7 mph - N/A   Scattered Clouds
1:35 AM 42.8 °F 36.6 °F 24.8 °F 49% 30.09 in 10.0 mi NNE 11.5 mph - N/A   Mostly Cloudy
1:55 AM 41.0 °F 33.5 °F 24.8 °F 53% 30.10 in 10.0 mi North 13.8 mph - N/A   Partly Cloudy
2:15 AM 41.0 °F 32.8 °F 26.6 °F 57% 30.11 in 10.0 mi NNE 16.1 mph - N/A   Partly Cloudy
2:35 AM 39.2 °F 30.8 °F 24.8 °F 56% 30.12 in 10.0 mi North 15.0 mph - N/A   Partly Cloudy
2:55 AM 39.2 °F 29.8 °F 24.8 °F 56% 30.12 in 10.0 mi North 18.4 mph 21.9 mph N/A   Clear
3:15 AM 39.2 °F 29.6 °F 24.8 °F 56% 30.12 in 10.0 mi North 19.6 mph - N/A   Clear
3:35 AM 37.4 °F 27.2 °F 24.8 °F 60% 30.13 in 10.0 mi North 19.6 mph - N/A   Clear
3:55 AM 37.4 °F 27.8 °F 24.8 °F 60% 30.13 in 10.0 mi NNE 17.3 mph - N/A   Clear
4:15 AM 37.4 °F 28.5 °F 24.8 °F 60% 30.13 in 10.0 mi North 15.0 mph - N/A   Clear
4:35 AM 37.4 °F 28.9 °F 26.6 °F 65% 30.13 in 10.0 mi North 13.8 mph - N/A   Clear
4:55 AM 35.6 °F 27.1 °F 26.6 °F 70% 30.14 in 10.0 mi North 12.7 mph - N/A   Clear
5:15 AM 35.6 °F 28.0 °F 24.8 °F 65% 30.15 in 10.0 mi North 10.4 mph - N/A   Clear
5:35 AM 33.8 °F 26.4 °F 24.8 °F 70% 30.16 in 10.0 mi North 9.2 mph - N/A   Clear
5:55 AM 32.0 °F 26.4 °F 24.8 °F 75% 30.17 in 10.0 mi North 5.8 mph - N/A   Clear
6:15 AM 30.2 °F 24.3 °F 23.0 °F 75% 30.19 in 10.0 mi NNW 5.8 mph - N/A   Clear
6:35 AM 28.4 °F 22.2 °F 23.0 °F 80% 30.20 in 10.0 mi NW 5.8 mph - N/A   Clear
6:55 AM 28.4 °F 21.2 °F 21.2 °F 74% 30.20 in 10.0 mi NW 6.9 mph - N/A   Clear
7:15 AM 26.6 °F 17.5 °F 21.2 °F 80% 30.22 in 10.0 mi WNW 9.2 mph - N/A   Clear
7:35 AM 28.4 °F 20.4 °F 21.2 °F 74% 30.22 in 10.0 mi WNW 8.1 mph - N/A   Clear
7:55 AM 28.4 °F 20.4 °F 21.2 °F 74% 30.23 in 10.0 mi WNW 8.1 mph - N/A   Clear
8:15 AM 28.4 °F 19.1 °F 23.0 °F 80% 30.24 in 10.0 mi West 10.4 mph - N/A   Clear
8:35 AM 30.2 °F 21.9 °F 24.8 °F 80% 30.25 in 10.0 mi WNW 9.2 mph - N/A   Clear
8:55 AM 32.0 °F 23.6 °F 26.6 °F 80% 30.25 in 10.0 mi NW 10.4 mph - N/A   Clear
9:15 AM 33.8 °F 25.8 °F 28.4 °F 81% 30.27 in 10.0 mi NW 10.4 mph - N/A   Clear
9:35 AM 35.6 °F 27.5 °F 30.2 °F 81% 30.28 in 10.0 mi NW 11.5 mph - N/A   Clear
9:55 AM 37.4 °F 28.9 °F 30.2 °F 75% 30.29 in 10.0 mi NNW 13.8 mph - N/A   Clear
10:15 AM 39.2 °F 32.0 °F 30.2 °F 70% 30.31 in 10.0 mi NNW 11.5 mph - N/A   Clear
10:35 AM 39.2 °F 30.8 °F 30.2 °F 70% 30.31 in 10.0 mi North 15.0 mph - N/A   Clear
10:55 AM 42.8 °F 35.4 °F 30.2 °F 61% 30.32 in 10.0 mi NNE 15.0 mph - N/A   Partly Cloudy
11:15 AM 44.6 °F 36.4 °F 32.0 °F 61% 30.31 in 10.0 mi North 20.7 mph 25.3 mph N/A   Clear
11:35 AM 44.6 °F 38.1 °F 32.0 °F 61% 30.32 in 10.0 mi NNE 13.8 mph - N/A   Clear
11:55 AM 46.4 °F 39.5 °F 30.2 °F 53% 30.32 in 10.0 mi NNE 17.3 mph 21.9 mph N/A   Clear
12:15 PM 48.2 °F - 30.2 °F 50% 30.32 in 10.0 mi NNE 17.3 mph 23.0 mph N/A   Clear
12:35 PM 48.2 °F - 30.2 °F 50% 30.31 in 10.0 mi North 19.6 mph 24.2 mph N/A   Clear
12:55 PM 48.2 °F - 28.4 °F 46% 30.32 in 10.0 mi NNE 18.4 mph - N/A   Clear
1:15 PM 48.2 °F - 26.6 °F 43% 30.32 in 10.0 mi North 15.0 mph 20.7 mph N/A   Clear
1:35 PM 50.0 °F - 26.6 °F 40% 30.32 in 10.0 mi NE 13.8 mph 23.0 mph N/A   Clear
1:55 PM 50.0 °F - 24.8 °F 37% 30.32 in 10.0 mi North 15.0 mph 21.9 mph N/A   Clear
2:15 PM 51.8 °F - 24.8 °F 35% 30.31 in 10.0 mi NNE 12.7 mph 19.6 mph N/A   Clear
2:35 PM 50.0 °F - 23.0 °F 35% 30.31 in 10.0 mi NNE 12.7 mph 18.4 mph N/A   Clear
2:55 PM 51.8 °F - 24.8 °F 35% 30.31 in 10.0 mi North 9.2 mph 20.7 mph N/A   Clear
3:15 PM 51.8 °F - 21.2 °F 30% 30.30 in 10.0 mi North 10.4 mph - N/A   Clear
3:35 PM 51.8 °F - 21.2 °F 30% 30.30 in 10.0 mi NNW 10.4 mph 17.3 mph N/A   Clear
3:55 PM 51.8 °F - 19.4 °F 28% 30.29 in 10.0 mi NNE 6.9 mph - N/A   Clear
4:15 PM 51.8 °F - 19.4 °F 28% 30.29 in 10.0 mi North 9.2 mph - N/A   Clear
4:35 PM 51.8 °F - 19.4 °F 28% 30.29 in 10.0 mi NNE 6.9 mph 18.4 mph N/A   Clear
4:55 PM 53.6 °F - 19.4 °F 26% 30.29 in 10.0 mi North 11.5 mph 17.3 mph N/A   Clear
5:15 PM 51.8 °F - 19.4 °F 28% 30.29 in 10.0 mi NNW 10.4 mph - N/A   Clear
5:35 PM 51.8 °F - 19.4 °F 28% 30.29 in 10.0 mi North 8.1 mph - N/A   Clear
5:55 PM 51.8 °F - 19.4 °F 28% 30.29 in 10.0 mi North 6.9 mph - N/A   Clear
6:15 PM 51.8 °F - 19.4 °F 28% 30.29 in 10.0 mi WNW 9.2 mph - N/A   Clear
6:35 PM 51.8 °F - 19.4 °F 28% 30.29 in 10.0 mi North 11.5 mph - N/A   Clear
6:55 PM 51.8 °F - 19.4 °F 28% 30.29 in 10.0 mi WNW 4.6 mph - N/A   Clear
7:15 PM 50.0 °F - 19.4 °F 30% 30.29 in 10.0 mi NNW 5.8 mph - N/A   Clear
7:35 PM 48.2 °F - 21.2 °F 34% 30.29 in 10.0 mi NNW 5.8 mph - N/A   Clear
7:55 PM 46.4 °F 43.5 °F 21.2 °F 37% 30.30 in 10.0 mi North 5.8 mph - N/A   Clear
8:15 PM 44.6 °F - 19.4 °F 37% 30.30 in 10.0 mi Calm Calm - N/A   Clear
8:35 PM 42.8 °F - 19.4 °F 39% 30.31 in 10.0 mi Calm Calm - N/A   Clear
8:55 PM 41.0 °F - 19.4 °F 42% 30.32 in 10.0 mi Calm Calm - N/A   Clear
9:15 PM 39.2 °F - 19.4 °F 45% 30.32 in 10.0 mi Calm Calm - N/A   Clear
9:35 PM 37.4 °F - 19.4 °F 48% 30.32 in 10.0 mi Calm Calm - N/A   Clear
9:55 PM 39.2 °F - 21.2 °F 49% 30.32 in 10.0 mi Calm Calm - N/A   Clear
10:15 PM 37.4 °F - 19.4 °F 48% 30.32 in 10.0 mi Calm Calm - N/A   Clear
10:35 PM 35.6 °F 31.7 °F 19.4 °F 52% 30.32 in 10.0 mi South 4.6 mph - N/A   Clear
10:55 PM 35.6 °F 31.7 °F 19.4 °F 52% 30.33 in 10.0 mi South 4.6 mph - N/A   Clear
11:15 PM 35.6 °F 32.8 °F 19.4 °F 52% 30.34 in 10.0 mi South 3.5 mph - N/A   Clear
11:35 PM 35.6 °F 32.8 °F 19.4 °F 52% 30.34 in 10.0 mi South 3.5 mph - N/A   Clear
11:55 PM 35.6 °F - 19.4 °F 52% 30.35 in 10.0 mi Calm Calm - N/A   Clear